This is the latest recevied weather packets stored in our database for station/object SQ9SMC-13. If no packets are shown the sender has not sent any weather packets the latest 10 day(s).
| Time | Temp. | Humidity | Pressure | Rain* | Wind** | Luminosity | Snow |
|---|---|---|---|---|---|---|---|
| 1777346408 | 1.67° C | 73% | 1024.5 hPa | 0 mm | - | 1 W/m² | - |
| 1777346103 | 1.67° C | 74% | 1024.5 hPa | 0 mm | - | 0 W/m² | - |
| 1777345806 | 1.67° C | 75% | 1024.3 hPa | 0 mm | - | 0 W/m² | - |
| 1777345505 | 1.67° C | 75% | 1024.5 hPa | 0 mm | - | 0 W/m² | - |
| 1777345202 | 1.67° C | 76% | 1024.4 hPa | 0 mm | - | 0 W/m² | - |
| 1777344904 | 1.67° C | 77% | 1024.3 hPa | 0 mm | - | 0 W/m² | - |
| 1777344602 | 1.11° C | 80% | 1024.4 hPa | 0 mm | - | 0 W/m² | - |
| 1777344303 | 1.11° C | 83% | 1024.2 hPa | 0 mm | - | 0 W/m² | - |
| 1777344003 | 0.56° C | 86% | 1024.3 hPa | 0 mm | - | 0 W/m² | - |
| 1777343702 | 0° C | 88% | 1024.3 hPa | 0 mm | - | 0 W/m² | - |
| 1777343403 | 0° C | 88% | 1024.4 hPa | 0 mm | - | 0 W/m² | - |
| 1777343103 | 0° C | 88% | 1024.3 hPa | 0 mm | - | 0 W/m² | - |
| 1777342807 | 0° C | 87% | 1024.5 hPa | 0 mm | - | 0 W/m² | - |
| 1777342505 | 0.56° C | 87% | 1024.4 hPa | 0 mm | - | 0 W/m² | - |
| 1777342202 | 0.56° C | 87% | 1024.2 hPa | 0 mm | - | 0 W/m² | - |
| 1777341902 | 0.56° C | 87% | 1024.2 hPa | 0 mm | - | 0 W/m² | - |
| 1777341608 | 0.56° C | 87% | 1024.3 hPa | 0 mm | - | 0 W/m² | - |
| 1777341303 | 0.56° C | 87% | 1024.1 hPa | 0 mm | - | 0 W/m² | - |
| 1777341003 | 0.56° C | 86% | 1024.1 hPa | 0 mm | - | 0 W/m² | - |
| 1777340704 | 0.56° C | 86% | 1024.2 hPa | 0 mm | - | 0 W/m² | - |
| 1777340404 | 0.56° C | 86% | 1023.9 hPa | 0 mm | - | 0 W/m² | - |
| 1777340104 | 0.56° C | 85% | 1023.9 hPa | 0 mm | - | 0 W/m² | - |
| 1777339803 | 1.11° C | 84% | 1024.1 hPa | 0 mm | - | 0 W/m² | - |
| 1777339503 | 1.11° C | 83% | 1023.9 hPa | 0 mm | - | 0 W/m² | - |
| 1777339203 | 1.11° C | 82% | 1024 hPa | 0 mm | - | 0 W/m² | - |
* Rain latest hour (hover to see other rain measurements)
** Current wind speed in m/s (hover to see current wind gust speed)